www.pogodaiklimat.ru

Погода и климат >> Архив погоды >> Норвегия >> Хасвик аэропорт


ПОГОДА в Хасвик аэропорту

  • Прогноз погоды в Хасвик аэропорту
  • Монитор погоды в Хасвик аэропорту

АРХИВ ПОГОДЫ в Хасвик аэропорту

Время (UTC), дата Ветер
(напр.,м/с)
 
Видим.   Явления Облачность Т
(С)
Тd
(С)
f
(%)
Тe
(С)
Тes
(С)
Комфортность P
(гПа)
Po
(гПа)
Тmin
(С)
Tmax
(С)
R
(мм)
R24
(мм)
S
(см)
11 17.01 Ю 4
{8}
н/о н/о -3.7 -7.4 75 -10 -10 990.4 989.5
10 17.01 ЮВ 6
{9}
н/о н/о -3.3 -6.7 77 -11 -11 990.5 989.6
12 17.01 ЮВ 6
{10}
н/о н/о -3.4 -7.1 76 -11 -11 990.2 989.4
13 17.01 ЮВ 5
{8}
н/о н/о -3.4 -7.6 73 -10 -10 989.9 989.1
14 17.01 ЮВ 4
{7}
н/о н/о -3.4 -7.7 72 -9 -9 990.0 989.1
15 17.01 В 6
{8}
н/о н/о -3.5 -7.2 76 -11 -11 990.2 989.3
17 17.01 ЮВ 4
{8}
н/о н/о -3.4 -7.6 73 -9 -9 990.4 989.6
16 17.01 В 6
{8}
н/о н/о -3.4 -7.2 75 -11 -11 990.3 989.4
18 17.01 ЮВ 5
{8}
н/о н/о -3.6 -7.4 75 -10 -10 990.6 989.7 -3.9 -3.1
19 17.01 ЮВ 3
{6}
н/о н/о -3.6 -8.1 71 -9 -9 990.8 989.9
20 17.01 ЮВ 3
{7}
н/о н/о -3.6 -7.6 74 -9 -9 990.9 990.0
21 17.01 ЮВ 4
{5}
н/о н/о -3.3 -6.8 77 -9 -9 991.2 990.3
23 17.01 ЮВ 4
{5}
н/о н/о -3.3 -7.3 74 -9 -9 991.3 990.5
22 17.01 ЮВ 3
{5}
н/о н/о -3.3 -7.1 75 -8 -8 991.3 990.4
00 18.01 Ю 2
{7}
н/о н/о -3.4 -6.9 77 -7 -7 991.3 990.4
01 18.01 ЮВ 1
{3}
н/о н/о -3.8 -6.7 80 -6 -6 991.4 990.5
02 18.01 штиль 0
{3}
н/о н/о -4.0 -6.3 84 -5 -5 991.5 990.6
03 18.01 В 2
{2}
н/о н/о -3.9 -5.4 89 -8 -8 991.7 990.9
05 18.01 ЮВ 2
{5}
н/о н/о -3.7 -5.9 85 -8 -8 992.1 991.3
04 18.01 ЮВ 1
{3}
н/о н/о -3.7 -4.5 94 -6 -6 992.0 991.1
06 18.01 Ю 3
{5}
н/о н/о -3.6 -6.1 83 -9 -9 992.2 991.3 -4.4 -3.1 30
07 18.01 Ю 3
{6}
н/о н/о -3.7 -6.6 80 -9 -9 992.6 991.7
08 18.01 Ю 4
{6}
н/о н/о -3.9 -6.4 83 -10 -10 992.9 992.0
09 18.01 Ю 4
{6}
н/о н/о -4.1 -6.6 83 -10 -10 993.3 992.4
11 18.01 Ю 5
{7}
н/о н/о -4.1 -5.7 89 -11 -11 993.6 992.7
10 18.01 Ю 4
{7}
н/о н/о -4.1 -6.3 85 -10 -10 993.4 992.5
12 18.01 Ю 5
{7}
н/о н/о -4.2 -5.4 91 -11 -11 993.7 992.9
13 18.01 Ю 4
{7}
н/о н/о -4.1 -5.1 93 -11 -11 994.0 993.1
14 18.01 Ю 4
{6}
н/о н/о -3.8 -4.8 93 -10 -10 994.1 993.2
15 18.01 Ю 3
{6}
н/о н/о -3.7 -3.9 99 -9 -9 994.3 993.4
17 18.01 З 8
{10}
н/о н/о -1.7 -3.0 91 -10 -10 994.1 993.2
16 18.01 Ю 3
{5}
н/о н/о -2.8 -3.0 99 -8 -8 994.2 993.3
18 18.01
{12}
н/о н/о -1.9 -3.0 92 994.5 993.6 -4.3 -1.3
19 18.01
{7}
н/о н/о -1.8 -4.4 82 994.7 993.8
20 18.01 С 3
{6}
н/о н/о -2.1 -4.0 87 -7 -7 995.3 994.4
21 18.01 С 2
{7}
н/о н/о -2.2 -4.3 85 -6 -6 995.6 994.7
23 18.01 СЗ 1
{2}
н/о н/о -7.2 -10.8 75 -9 -9 995.8 994.9
22 18.01 штиль 0
{5}
н/о н/о -3.8 -6.5 81 -5 -5 995.6 994.7
00 19.01 В 2
{7}
н/о н/о -5.8 -8.1 84 -10 -10 995.9 995.0
01 19.01 З 1
{4}
н/о н/о -3.0 -5.3 84 -5 -5 996.0 995.1
02 19.01 ЮЗ 3
{6}
н/о н/о -2.5 -5.6 79 -8 -8 995.7 994.8
03 19.01 СЗ 6
{9}
н/о н/о -2.1 -2.7 96 -9 -9 996.3 995.4
05 19.01 З 5
{8}
н/о н/о -3.0 -3.2 99 -10 -10 996.7 995.8
04 19.01
{9}
н/о н/о -3.8 -4.4 96 996.9 996.0
06 19.01 ЮЗ 3
{9}
н/о н/о -2.7 -4.3 89 -8 -8 996.7 995.8 -7.8 -1.1
07 19.01 ЮЗ 4
{6}
н/о н/о -2.3 -5.1 81 -8 -8 997.1 996.2
08 19.01 С 4
{8}
н/о н/о -3.0 -3.6 96 -9 -9 997.7 996.8
09 19.01 ЮЗ 3
{7}
н/о н/о -2.8 -2.9 99 -8 -8 998.0 997.2
11 19.01 ЮЗ 4
{7}
н/о н/о -2.3 -4.5 85 -8 -8 998.5 997.6
10 19.01 ЮЗ 4
{7}
н/о н/о -2.1 -3.3 91 -8 -8 998.4 997.5
12 19.01 Ю 4
{8}
н/о н/о -2.8 -3.4 96 -9 -9 998.9 998.0
13 19.01 СВ 5
{10}
н/о н/о -3.5 -4.2 95 -11 -11 999.9 999.0
14 19.01 СВ 6
{10}
н/о н/о -3.3 -5.1 87 -11 -11 1000.9 1000.0
15 19.01 СВ 7
{12}
н/о н/о -2.2 -8.9 60 -9 -9 1001.8 1000.9
17 19.01 СВ 4
{8}
н/о н/о -2.5 -11.2 51 -8 -8 1003.5 1002.6
16 19.01 СВ 5
{13}
н/о н/о -2.5 -10.3 55 -9 -9 1002.8 1001.9
18 19.01 В 3
{13}
н/о н/о -2.7 -10.7 54 -7 -7 1004.0 1003.1 -3.7 -1.7
19 19.01 В 2
{6}
н/о н/о -3.4 -10.9 56 -7 -7 1004.5 1003.6
20 19.01 штиль 0
{4}
н/о н/о -5.8 -12.2 61 -6 -6 1005.0 1004.1
21 19.01 В 3
{5}
н/о н/о -3.7 -10.8 58 -9 -9 1005.4 1004.5
23 19.01 штиль 0
{1}
н/о н/о -9.4 -14.2 68 -10 -10 1006.0 1005.1
22 19.01 штиль 0
{3}
н/о н/о -8.8 -13.9 67 -9 -9 1005.7 1004.8
00 20.01 Ю 1
{6}
н/о н/о -4.0 -9.9 63 -6 -6 1006.3 1005.4
01 20.01 ЮЗ 5
{7}
н/о н/о -2.4 -9.1 60 -9 -9 1006.1 1005.2
02 20.01 З 5
{7}
н/о н/о -2.4 -9.5 58 -9 -9 1006.3 1005.5
03 20.01 ЮЗ 5
{7}
н/о н/о -2.3 -9.7 57 -8 -8 1006.2 1005.3
05 20.01 ЮЗ 5
{7}
н/о н/о -2.6 -9.9 57 -9 -9 1006.3 1005.4
04 20.01 ЮЗ 5 н/о н/о -2.4 -9.6 58 -9 -9 1006.3 1005.4
06 20.01 ЮЗ 6
{9}
н/о н/о -3.0 -11.4 52 -10 -10 1006.2 1005.3 -10.1 -1.9
07 20.01 ЮЗ 5
{9}
н/о н/о -2.4 -11.1 51 -8 -8 1006.2 1005.4
08 20.01 З 6
{10}
н/о н/о -2.1 -10.6 52 -9 -9 1006.4 1005.6
09 20.01 З 7
{10}
н/о н/о -2.0 -9.6 56 -9 -9 1006.9 1006.1
11 20.01 З 5
{11}
н/о н/о -3.1 -5.7 82 -10 -10 1007.2 1006.4
10 20.01 З 7
{12}
н/о н/о -2.3 -7.9 65 -10 -10 1007.0 1006.1
12 20.01 З 7
{12}
н/о н/о -2.5 -5.0 83 -10 -10 1006.8 1005.9
13 20.01 З 7
{12}
н/о н/о -3.6 -3.7 99 -12 -12 1007.5 1006.6
14 20.01 СВ 5
{8}
н/о н/о -3.0 -5.9 80 -10 -10 1007.9 1007.0
15 20.01 В 4
{10}
н/о н/о -3.1 -7.1 74 -9 -9 1008.3 1007.4
17 20.01 СВ 3
{6}
н/о н/о -3.0 -8.4 66 -8 -8 1008.9 1008.0
16 20.01 СВ 2
{5}
н/о н/о -3.2 -8.4 67 -7 -7 1008.6 1007.7
18 20.01 В 3
{12}
н/о н/о -4.1 -8.7 70 -9 -9 1008.8 1007.9 -4.1 -1.7
19 20.01 В 4
{5}
н/о н/о -4.6 -8.6 74 -11 -11 1008.6 1007.7
20 20.01 С 2
{5}
н/о н/о -3.9 -5.5 89 -8 -8 1009.0 1008.1
21 20.01 ЮВ 1
{4}
н/о н/о -5.7 -6.3 96 -8 -8 1009.0 1008.1
23 20.01 СВ 6
{9}
н/о н/о -4.0 -7.8 75 -11 -11 1009.5 1008.6
22 20.01 СВ 3
{4}
н/о н/о -4.0 -5.5 89 -9 -9 1009.1 1008.2
00 21.01 С 5
{11}
н/о н/о -4.0 -7.5 77 -11 -11 1009.6 1008.7
01 21.01 С 5
{10}
н/о н/о -4.3 -6.5 85 -11 -11 1009.6 1008.7
02 21.01 С 4
{9}
н/о н/о -3.5 -11.7 53 -9 -9 1009.3 1008.4
03 21.01 С 5
{13}
н/о н/о -3.3 -12.0 51 -10 -10 1009.2 1008.4
05 21.01 С 5
{10}
н/о н/о -3.9 -10.8 59 -10 -10 1009.5 1008.6
04 21.01 С 5
{9}
н/о н/о -3.6 -10.3 60 -10 -10 1009.4 1008.5
06 21.01 СЗ 7
{13}
н/о н/о -4.3 -8.6 72 -12 -12 1009.7 1008.8 -6.1 -3.1
07 21.01 С 6
{10}
н/о н/о -3.5 -11.9 52 -10 -10 1009.9 1009.0
08 21.01 С 6
{11}
н/о н/о -3.4 -10.1 60 -10 -10 1010.3 1009.4
09 21.01 С 7
{10}
н/о н/о -3.0 -9.5 61 -10 -10 1010.6 1009.7
11 21.01 С 5
{10}
н/о н/о -3.6 -5.9 84 -10 -10 1010.5 1009.6
10 21.01 С 4
{11}
н/о н/о -3.5 -7.6 73 -9 -9 1010.5 1009.7
12 21.01 С 4
{11}
н/о н/о -2.8 -8.4 65 -8 -8 1010.5 1009.6
13 21.01 С 4
{8}
н/о н/о -2.5 -7.4 69 -8 -8 1010.2 1009.3
14 21.01 С 4
{8}
н/о н/о -2.0 -7.6 65 -7 -7 1010.0 1009.1
15 21.01 С 6
{11}
н/о н/о -1.4 -8.6 58 -8 -8 1009.6 1008.7
17 21.01 С 4
{9}
н/о н/о -1.3 -8.3 59 -7 -7 1009.5 1008.6
16 21.01 С 5
{12}
н/о н/о -1.4 -9.3 55 -7 -7 1009.7 1008.8
18 21.01 СЗ 6
{12}
н/о н/о -2.0 -5.7 76 -9 -9 1009.2 1008.3 -4.2 -1.0
19 21.01 С 2
{7}
н/о н/о -2.2 -5.1 80 -6 -6 1008.7 1007.8
20 21.01 ЮВ 1
{4}
н/о н/о -2.9 -4.0 92 -5 -5 1008.0 1007.1
21 21.01 ЮЗ 1
{2}
н/о н/о -3.1 -3.3 99 -6 -6 1007.2 1006.3
23 21.01 В 4
{7}
н/о н/о -3.0 -3.0 100 -9 -9 1005.7 1004.8
22 21.01 СВ 3
{3}
н/о н/о -3.2 -3.2 100 -9 -9 1006.6 1005.8
00 22.01 В 4
{7}
н/о н/о -2.9 -2.9 100 -9 -9 1004.8 1003.9
01 22.01 В 3
{7}
н/о н/о -2.9 -2.9 100 -8 -8 1004.4 1003.5
02 22.01 В 3
{7}
н/о н/о -3.3 -3.3 100 -9 -9 1004.4 1003.5
03 22.01 З 1
{3}
н/о н/о -7.4 -8.3 93 -10 -10 1004.6 1003.7
05 22.01 СВ 7
{12}
н/о н/о -3.1 -5.1 86 -11 -11 1005.2 1004.3
04 22.01 С 6
{8}
н/о н/о -3.6 -4.5 93 -11 -11 1004.7 1003.8
06 22.01 СВ 6
{12}
н/о н/о -3.1 -6.6 77 -10 -10 1005.6 1004.7 -7.4 -1.6
07 22.01 СВ 5
{9}
н/о н/о -3.8 -5.4 89 -11 -11 1006.0 1005.1
08 22.01 СВ 6
{9}
н/о н/о -3.6 -7.7 73 -11 -11 1006.4 1005.5
09 22.01 СВ 4
{8}
н/о н/о -3.3 -7.8 71 -9 -9 1006.7 1005.8
11 22.01 СВ 6
{9}
н/о н/о -4.0 -8.5 71 -11 -11 1007.4 1006.5
10 22.01 В 3
{8}
н/о н/о -3.3 -7.5 73 -8 -8 1006.9 1006.0
12 22.01 СВ 4
{9}
н/о н/о -3.9 -10.8 59 -10 -10 1007.4 1006.5
13 22.01 В 2
{6}
н/о н/о -6.5 -9.3 80 -11 -11 1007.7 1006.8
14 22.01 Ю 1
{3}
н/о н/о -8.9 -12.0 78 -11 -11 1007.7 1006.8
15 22.01 штиль 0
{2}
н/о н/о -8.4 -10.9 82 -9 -9 1007.8 1006.9
17 22.01 ЮВ 1
{2}
н/о н/о -10.9 -13.0 84 -13 -13 1008.1 1007.1
16 22.01 Ю 1
{2}
н/о н/о -7.4 -11.6 72 -10 -10 1008.0 1007.1
18 22.01 Ю 1
{6}
н/о н/о -7.1 -10.2 78 -9 -9 1008.3 1007.4 -11.3 -3.1
19 22.01 штиль 0
{2}
н/о н/о -11.3 -13.8 82 -11 -11 1008.3 1007.4
20 22.01 штиль 0
{1}
н/о н/о -11.6 -13.5 86 -12 -12 1008.5 1007.6
21 22.01 Ю 1
{2}
н/о н/о -9.3 -10.6 90 -12 -12 1008.4 1007.5
23 22.01 штиль 0 н/о н/о -12.0 -13.2 91 -12 -12 1008.8 1007.9
22 22.01 штиль 0
{1}
н/о н/о -10.2 -12.0 87 -11 -11 1008.7 1007.8
00 23.01 ЮВ 1
{2}
н/о н/о -11.5 -12.4 93 -14 -14 1009.2 1008.2
01 23.01 ЮВ 1
{2}
н/о н/о -9.6 -10.4 94 -12 -12 1009.3 1008.3
02 23.01 В 1
{2}
н/о н/о -8.1 -9.5 90 -11 -11 1009.7 1008.7
03 23.01 В 3
{4}
н/о н/о -6.1 -8.4 84 -12 -12 1010.1 1009.2
05 23.01 В 4
{6}
н/о н/о -5.2 -7.6 83 -12 -12 1011.2 1010.3
04 23.01 СВ 2 н/о н/о -7.1 -9.6 82 -11 -11 1010.7 1009.8
06 23.01 В 3
{6}
н/о н/о -5.1 -8.0 80 -11 -11 1011.8 1010.9 -12.5 -4.5
07 23.01 В 4
{5}
н/о н/о -6.2 -9.3 79 -13 -13 1012.3 1011.4
08 23.01 В 4
{7}
н/о н/о -4.8 -8.0 78 -11 -11 1013.1 1012.2
09 23.01 В 3
{5}
н/о н/о -6.0 -7.2 91 -12 -12 1014.1 1013.2
11 23.01 В 3
{4}
н/о н/о -6.0 -7.9 86 -12 -12 1015.3 1014.4
10 23.01 В 3
{5}
н/о н/о -5.9 -7.2 91 -12 -12 1014.6 1013.7
12 23.01 СВ 1
{7}
н/о н/о -7.6 -8.5 93 -10 -10 1015.7 1014.7
13 23.01 В 3
{4}
н/о н/о -7.1 -8.7 88 -13 -13 1016.0 1015.1
14 23.01 Ю 1
{4}
н/о н/о -7.8 -9.6 87 -10 -10 1016.4 1015.5
15 23.01 ЮВ 1
{2}
н/о н/о -8.2 -8.8 95 -11 -11 1016.8 1015.9
17 23.01 штиль 0
{2}
н/о н/о -8.7 -9.6 93 -9 -9 1017.6 1016.7
16 23.01 ЮВ 1
{2}
н/о н/о -7.1 -7.4 98 -10 -10 1017.3 1016.4
18 23.01 Ю 3
{6}
н/о н/о -3.7 -6.6 80 -9 -9 1018.1 1017.2 -9.9 -3.3
19 23.01 Ю 4
{6}
н/о н/о -2.9 -6.3 77 -9 -9 1018.5 1017.6
20 23.01 В 4
{6}
н/о н/о -3.2 -6.7 77 -9 -9 1019.1 1018.2
21 23.01 В 4
{6}
н/о н/о -3.2 -6.3 79 -9 -9 1019.6 1018.7
23 23.01 В 3
{7}
н/о н/о -5.1 -6.8 88 -11 -11 1020.3 1019.4
22 23.01 ЮВ 5
{7}
н/о н/о -2.6 -5.1 83 -9 -9 1019.9 1019.0
00 24.01 В 2
{7}
н/о н/о -5.2 -7.1 86 -9 -9 1020.5 1019.6
01 24.01 штиль 0
{3}
н/о н/о -6.1 -7.3 91 -7 -7 1020.7 1019.8
02 24.01 штиль 0
{1}
н/о н/о -9.8 -11.1 90 -10 -10 1020.8 1019.9
03 24.01 штиль 0
{1}
н/о н/о -10.6 -11.3 95 -11 -11 1020.8 1019.9
05 24.01 штиль 0
{1}
н/о н/о -8.7 -8.8 99 -9 -9 1020.6 1019.7
04 24.01 штиль 0
{1}
н/о н/о -11.1 -11.8 95 -11 -11 1020.7 1019.8
06 24.01 ЮВ 1
{3}
н/о н/о -9.0 -9.6 95 -11 -11 1020.6 1019.7 -11.3 -2.5
07 24.01 штиль 0
{1}
н/о н/о -8.1 -8.2 99 -9 -9 1020.5 1019.6
08 24.01 штиль 0
{2}
н/о н/о -7.4 -8.2 94 -8 -8 1020.6 1019.7
10 24.01 ЮВ 1
{2}
н/о н/о -7.0 -7.2 98 -10 -10 1020.6 1019.7

 

Местоположение метеостанции Хасвик аэропорт (Норвегия): широта 70.49 долгота 22.15 высота над уровнем моря 6 м.

В архиве по умолчанию представлена погода в Хасвик аэропорту за последнюю неделю. Архивные данные за месяц целиком и за предыдущие месяцы, начиная с января 2011 года, Вы можете получить, выбрав интересующий диапазон дат из раскрывающегося списка и нажав кнопку "Ввод!".


*Определитесь, кто Вы:
робот инопланетянин человек

Внимание! Время в таблицах - всемирное. Для получения местного времени необходимо прибавить поправку, которая равна 1 ч.

Смотрите также архив погоды в соседних городах и на ближайших метеорологических станциях:

Погода на Хасвике (Норвегия) (16 км)
Погода в Рогнсундете (Норвегия) (26 км)
Погода в Хаммерфест аэропорту (Норвегия) (50 км)
Погода в Альта аэропорту (Норвегия) (73 км)
Погода в Сёрхьюсен аэропорту (Норвегия) (90 км)
Погода на Маяке Fruholmen (Норвегия) (95 км)
Погода на Маяке Torsvag (Норвегия) (103 км)
Погода в Суоловуопми-Лулит (Норвегия) (114 км)
Погода в Банаке (Норвегия) (117 км)
Погода в Норднесфьеллете (Норвегия) (121 км)

Пояснения к столбцам:

Ветер - указаны скорость ветра в м/с - средняя за 10 мин, порывы в срок и между сроками (в фигурных скобках) и направление, откуда дует ветер: С - северный, СВ - северо-восточный, В - восточный, ЮВ - юго-восточный, Ю - южный, ЮЗ - юго-западный, З - западный, СЗ - северо-западный.
Видимость - горизонтальная дальность видимости в метрах или километрах. При видимости от 1 до 10 км при отсутствии осадков обычно наблюдается дымка, при ухудшении видимости до 1 км и менее - туман. В сухую погоду видимость может ухудшаться дымом, пылью или мглою.
Явления - указаны атмосферные явления, наблюдавшиеся в срок или в последний час перед сроком; фигурными скобками обозначены явления, наблюдавшиеся между сроками (за 1-3 часа до срока); квадратными скобками обозначены град или гололедные отложения с указанием их диаметра в мм.
Облачность - указаны через наклонную черту общая и нижняя облачность в баллах и высота нижней границы облаков в метрах; квадратными скобками обозначены формы облаков: Ci - перистые, Cs - перисто-слоистые, Cc - перисто-кучевые, Ac - высококучевые, As - высокослоистые, Sc - слоисто-кучевые, Ns - слоисто-дождевые, Cu - кучевые, Cb - кучево-дождевые. Подробнее классификацию облаков см. в Атласе облаков (PDF).
T - Температура воздуха - температура, измеренная на высоте 2 м над землей.
Td - Температура точки росы - температура, при понижении до которой содержащийся в воздухе водяной пар достигнет насыщения.
f - Относительная влажность воздуха - влажноcть воздуха, измеренная на высоте 2 м над землей.
Te - Эффективная температура - температура, которую ощущает одетый по сезону человек в тени. Характеристика душности погоды. При расчете учитывается влияние влажности воздуха и скорости ветра на теплоощущения человека.
Tes - Эффективная температура на солнце - температура, которую ощущает человек, с поправкой на солнечный нагрев. Характеристика знойности погоды. Зависит от высоты солнца над горизонтом, облачности и скорости ветра. Ночью, в пасмурную погоду, а также при ветре 12 м/с и более поправка равна нулю.
P - Атмосферное давление - приведенное к уровню моря атмосферное давление.
Po - Атмосферное давление - измеренное на уровне метеостанции атмосферное давление.
Tmin - Минимальная температура - минимум температуры воздуха на высоте 2 м над землей.
Tmax - Максимальная температура - максимум температуры воздуха на высоте 2 м над землей.
R - Количество осадков - Количество выпавших осадков за период времени, мм. При наведении курсора мыши на число - период времени, за который выпало указанное количество осадков.
R24 - Количество осадков - Количество выпавших осадков за 24 часа, мм.
S - Снежный покров - Высота снежного покрова, см. При наведении курсора мыши на число - состояние снежного покрова и степень покрытия местности в баллах.